Brandon, TX

7:40 PM CDT on August 26, 2016 (GMT -0500)
Hillsboro

Weather History for KINJ - October, 2013

Change the Weather History Date:

Wednesday, October 16, 2013

  Actual Average (KACT) Record (KACT)
Temperature  
Mean Temperature 58 °F 68 °F  
Max Temperature 63 °F 80 °F 94 °F (1989)
Min Temperature 53 °F 57 °F 38 °F (1952)
Degree Days  
Heating Degree Days 7 2  
Month to date heating degree days 18  
Since 1 July heating degree days 24  
Cooling Degree Days 0 5  
Month to date cooling degree days 104  
Year to date cooling degree days 2698  
Growing Degree Days 8 (Base 50)    
Moisture  
Dew Point 52 °F    
Average Humidity 84    
Maximum Humidity 92    
Minimum Humidity 62    
Precipitation  
Precipitation 0.73 in 0.14 in 1.24 in (1925)
Month to date precipitation 2.00  
Year to date precipitation 27.22  
Snow  
Snow 0.00 in 0.00 in 0.00 in ()
Month to date snowfall 0.0  
Since 1 July snowfall 0.0  
Since 1 September snowfall 0.0  
Snow Depth -    
Sea Level Pressure  
Sea Level Pressure 30.05 in    
Wind  
Wind Speed 11 mph (NNW)    
Max Wind Speed 17 mph    
Max Gust Speed 25 mph    
Visibility 9 miles    
Events Rain    
T = Trace of Precipitation, MM = Missing Value Source: NWS Daily Summary

Daily Weather History Graph

Daily Weather History Graph

Search for Another Location

Airport or City:

Trip Planner

Search our weather history database for the weather conditions in past years. The results will help you decide how hot, cold, wet, or windy it might be!

Date:

Astronomy

Oct. 16, 2013 Rise Set
Actual Time 7:32 AM CDT 6:54 PM CDT
Civil Twilight 7:08 AM CDT 7:19 PM CDT
Nautical Twilight 6:39 AM CDT 7:47 PM CDT
Astronomical Twilight 6:11 AM CDT 8:15 PM CDT
Moon 5:29 PM CDT (10/16) 5:09 AM CDT (10/16)
Length of Visible Light 12h 10m
Length of Day
11h 21m
Waxing Gibbous, 94% of the Moon is Illuminated
Oct 16
Waxing Gibbous
Oct 18
Full
Oct 26
Last Quarter
Nov 3
New
Nov 9
First Quarter

Hourly Weather History & Observations

Time (CDT) Temp. Dew Point Humidity Pressure Visibility Wind Dir Wind Speed Gust Speed Precip Events Conditions
12:15 AM 54.7 °F 52.3 °F 92% 30.03 in 10.0 mi North 10.4 mph - N/A Rain Rain
12:35 AM 54.7 °F 52.3 °F 92% 30.02 in 7.0 mi North 13.8 mph - 0.05 in Rain Rain
12:55 AM 54.5 °F 52.0 °F 91% 30.02 in 7.0 mi North 16.1 mph - 0.08 in Rain Light Rain
1:15 AM 54.1 °F 51.8 °F 92% 30.03 in 7.0 mi North 11.5 mph 18.4 mph 0.03 in Rain Heavy Rain
1:35 AM 54.0 °F 51.8 °F 92% 30.03 in 5.0 mi North 15.0 mph 19.6 mph 0.12 in Rain Heavy Rain
1:55 AM 54.0 °F 51.8 °F 92% 30.02 in 5.0 mi North 13.8 mph - 0.20 in Rain Rain
2:15 AM 53.8 °F 51.4 °F 92% 30.01 in 10.0 mi North 13.8 mph 18.4 mph N/A Rain Light Rain
2:35 AM 54.0 °F 51.8 °F 92% 30.04 in 10.0 mi NNW 12.7 mph - 0.01 in Rain Rain
2:55 AM 54.0 °F 51.8 °F 92% 30.02 in 5.0 mi NNW 17.3 mph - 0.06 in Rain Rain
3:15 AM 53.8 °F 51.6 °F 92% 30.01 in 10.0 mi North 15.0 mph - 0.02 in Rain Rain
3:35 AM 53.8 °F 51.6 °F 92% 30.03 in 7.0 mi NNW 12.7 mph - 0.07 in Rain Heavy Rain
3:55 AM 54.0 °F 51.8 °F 92% 30.01 in 7.0 mi North 11.5 mph - 0.12 in Rain Heavy Rain
4:15 AM 54.0 °F 51.8 °F 92% 30.04 in 10.0 mi NNW 11.5 mph - 0.04 in Rain Rain
4:35 AM 54.1 °F 51.8 °F 92% 30.03 in 10.0 mi NNW 10.4 mph - 0.07 in Rain Rain
4:55 AM 53.8 °F 51.4 °F 92% 30.03 in 10.0 mi NNW 16.1 mph - 0.10 in Rain Rain
5:15 AM 53.6 °F 51.1 °F 91% 30.03 in 7.0 mi North 12.7 mph 18.4 mph 0.02 in Rain Rain
5:35 AM 53.6 °F 51.1 °F 91% 30.03 in 7.0 mi North 11.5 mph 18.4 mph 0.07 in Rain Heavy Rain
5:55 AM 53.6 °F 51.3 °F 92% 30.03 in 7.0 mi North 11.5 mph - 0.12 in Rain Heavy Rain
6:15 AM 53.6 °F 51.3 °F 92% 30.04 in 7.0 mi North 10.4 mph - 0.03 in Rain Rain
6:35 AM 53.8 °F 51.4 °F 92% 30.04 in 10.0 mi North 10.4 mph - 0.03 in   Light Drizzle
6:55 AM 54.0 °F 51.6 °F 92% 30.05 in 10.0 mi NNW 11.5 mph - 0.03 in   Overcast
7:15 AM 53.6 °F 51.3 °F 92% 30.05 in 10.0 mi North 13.8 mph - N/A   Overcast
7:35 AM 53.6 °F 51.1 °F 91% 30.06 in 7.0 mi NNW 11.5 mph 18.4 mph N/A Rain Light Rain
7:55 AM 53.6 °F 51.1 °F 91% 30.07 in 4.0 mi North 12.7 mph 18.4 mph N/A Rain Rain
8:15 AM 53.6 °F 51.3 °F 92% 30.07 in 2.5 mi North 10.4 mph 19.6 mph 0.01 in Rain Rain
8:35 AM 53.6 °F 51.1 °F 91% 30.08 in 2.5 mi North 13.8 mph 23.0 mph 0.02 in   Drizzle
8:55 AM 53.2 °F 50.9 °F 92% 30.08 in 4.0 mi North 11.5 mph 20.7 mph 0.02 in Rain Rain
9:15 AM 53.6 °F 51.1 °F 91% 30.09 in 5.0 mi North 16.1 mph 21.9 mph N/A   Light Drizzle
9:35 AM 54.0 °F 51.8 °F 92% 30.08 in 10.0 mi North 16.1 mph 19.6 mph N/A   Overcast
9:55 AM 54.9 °F 52.2 °F 91% 30.09 in 10.0 mi North 17.3 mph 25.3 mph N/A   Overcast
10:15 AM 55.4 °F 52.5 °F 90% 30.09 in 10.0 mi North 15.0 mph 19.6 mph N/A   Overcast
10:35 AM 55.8 °F 52.7 °F 89% 30.10 in 10.0 mi North 9.2 mph 20.7 mph N/A   Overcast
10:55 AM 56.3 °F 52.7 °F 88% 30.10 in 10.0 mi North 13.8 mph 18.4 mph N/A   Overcast
11:15 AM 56.1 °F 52.5 °F 88% 30.11 in 10.0 mi NNW 12.7 mph - N/A   Overcast
11:35 AM 55.8 °F 52.7 °F 89% 30.11 in 2.0 mi NNW 11.5 mph - N/A   Overcast
11:55 AM 55.4 °F 52.2 °F 89% 30.10 in 5.0 mi North 10.4 mph - N/A   Overcast
12:15 PM 55.4 °F 52.5 °F 90% 30.09 in 10.0 mi North 13.8 mph 20.7 mph N/A   Overcast
12:35 PM 56.5 °F 52.7 °F 87% 30.09 in 10.0 mi North 12.7 mph 20.7 mph N/A   Overcast
12:55 PM 56.7 °F 52.3 °F 85% 30.08 in 10.0 mi North 12.7 mph 17.3 mph N/A   Overcast
1:15 PM 56.5 °F 51.8 °F 84% 30.08 in 10.0 mi NNW 13.8 mph - N/A   Overcast
1:35 PM 57.4 °F 52.2 °F 83% 30.07 in 10.0 mi North 13.8 mph - N/A   Overcast
1:55 PM 57.9 °F 52.3 °F 82% 30.07 in 10.0 mi NNW 11.5 mph - N/A   Overcast
2:15 PM 58.3 °F 52.7 °F 82% 30.05 in 10.0 mi NNW 11.5 mph - N/A   Overcast
2:35 PM 59.4 °F 53.1 °F 80% 30.04 in 10.0 mi North 15.0 mph 18.4 mph N/A   Overcast
2:55 PM 61.3 °F 54.0 °F 77% 30.03 in 10.0 mi NNW 11.5 mph - N/A   Overcast
3:15 PM 61.3 °F 53.1 °F 74% 30.03 in 10.0 mi NNW 10.4 mph 17.3 mph N/A   Overcast
3:35 PM 61.7 °F 52.3 °F 71% 30.03 in 10.0 mi NNW 10.4 mph - N/A   Overcast
3:55 PM 62.1 °F 52.2 °F 70% 30.03 in 10.0 mi NNW 11.5 mph - N/A   Overcast
4:15 PM 62.1 °F 51.1 °F 67% 30.03 in 10.0 mi North 11.5 mph - N/A   Overcast
4:35 PM 62.2 °F 51.6 °F 68% 30.03 in 10.0 mi NNW 8.1 mph - N/A   Overcast
4:55 PM 62.1 °F 50.9 °F 67% 30.03 in 10.0 mi NNW 12.7 mph - N/A   Overcast
5:15 PM 62.6 °F 50.4 °F 64% 30.02 in 10.0 mi North 9.2 mph - N/A   Overcast
5:35 PM 63.5 °F 50.2 °F 62% 30.02 in 10.0 mi North 11.5 mph - N/A   Mostly Cloudy
5:55 PM 62.1 °F 49.3 °F 63% 30.03 in 10.0 mi NNW 9.2 mph - N/A   Mostly Cloudy
6:15 PM 62.4 °F 49.5 °F 63% 30.03 in 10.0 mi NNW 10.4 mph - N/A   Overcast
6:35 PM 61.7 °F 49.5 °F 64% 30.03 in 10.0 mi NNW 8.1 mph - N/A   Overcast
6:55 PM 61.2 °F 50.0 °F 67% 30.04 in 10.0 mi NNW 5.8 mph - N/A   Overcast
7:15 PM 60.8 °F 50.9 °F 70% 30.04 in 10.0 mi Calm Calm - N/A   Overcast
7:35 PM 60.4 °F 51.8 °F 73% 30.05 in 10.0 mi Calm Calm - N/A   Overcast
7:55 PM 60.4 °F 51.3 °F 72% 30.05 in 10.0 mi Calm Calm - N/A   Overcast
8:35 PM 59.0 °F 51.3 °F 75% 30.07 in 7.0 mi Calm Calm - N/A   Scattered Clouds
8:55 PM 57.7 °F 52.7 °F 83% 30.07 in 10.0 mi NNW 3.5 mph - N/A   Mostly Cloudy
9:15 PM 56.5 °F 51.8 °F 84% 30.07 in 10.0 mi NNW 3.5 mph - N/A   Scattered Clouds
9:35 PM 56.7 °F 52.0 °F 84% 30.08 in 10.0 mi Calm Calm - N/A   Clear
9:55 PM 57.2 °F 51.8 °F 82% 30.08 in 10.0 mi Calm Calm - N/A   Clear
10:15 PM 56.3 °F 50.5 °F 81% 30.08 in 10.0 mi North 4.6 mph - N/A   Scattered Clouds
10:35 PM 55.4 °F 50.2 °F 83% 30.08 in 10.0 mi Calm Calm - N/A   Scattered Clouds
10:55 PM 55.0 °F 50.4 °F 84% 30.09 in 10.0 mi Calm Calm - N/A   Clear
11:15 PM 54.5 °F 50.0 °F 85% 30.09 in 10.0 mi NNW 3.5 mph - N/A   Clear
11:35 PM 53.2 °F 48.7 °F 85% 30.09 in 10.0 mi NNW 4.6 mph - N/A   Clear
11:55 PM 54.1 °F 49.5 °F 84% 30.09 in 10.0 mi NNW 4.6 mph - N/A   Mostly Cloudy